Location: Dumpton Point
(51.3500°N, 1.4433°E)
Time: 22:44:38
(UTC+00:00)

Vanguard 1 - Pass Details

Date: 26 September 2022
Orbit: 650 x 3831 km, 34.2° (Epoch: 03 December)

Event Time Altitude Azimuth Distance (km) Brightness Sun altitude
Rises 13:42:38 0° 200° (SSW) 6,593 15.3 31.7°
Reaches altitude 10° 13:51:32 10° 175° (S) 4,670 14.3 30.9°
Maximum altitude 13:55:08 12° 158° (SSE) 4,120 13.7 30.6°
Drops below altitude 10° 13:58:14 10° 140° (SE) 3,889 13.3 30.3°
Sets 14:03:36 0° 110° (ESE) 4,217 13.1 29.7°
